sat.trackr.live / text

‹ back to catalog

BEIDOU-3 M16 (C35)

NORAD 43647 · 2018-078A

PAYLOAD ACTIVE UNKNOWN

§ Identity

Operator
Country
PRC
Launch date
2018-10-15
Launch site
XICLF
Launch vehicle
Mass (kg)
RCS (m²)

Purposes: nav

External: N2YO · Heavens-Above · Gunter

§ Orbital elements

Epoch: 2026-05-24T09:27:16.437600Z

Period
773.23 min
Inclination
54.1126°
Eccentricity
0.0007675
Mean motion
1.86232305 rev/d
Perigee alt
21,506.5 km
Apogee alt
21,549.3 km
Semi-major
27,906.1 km
B*
0.0000e+0
RAAN
300.8196°
Arg perigee
40.4072°
Mean anomaly
319.6276°
Rev number
5,171

§ Raw data

BEIDOU-3 M16 (C35)1 43647U 18078A   26144.39394025 -.00000083  00000+0  00000+0 0  99902 43647  54.1126 300.8196 0007675  40.4072 319.6276  1.86232305 51712

JSON: /api/v1/satellites/43647 · /tle

For live sub-satellite position, see the globe view (requires WebGL).

§ Visibility from observer

Set your observer location to see the next 7 days of passes ≥ 10°. The values pass through the URL so the page stays shareable.

No JS? Fill the form by hand. The geolocation button needs JavaScript.